Overview Statistics Trail Chart Weather Telemetry Raw packets
 

This is the latest recevied weather packets stored in our database for station/object IZ2MHJ-3. If no packets are shown the sender has not sent any weather packets the latest 10 day(s).

<< 1 2 3 4 5 >>
Time Temp. Humidity Pressure Rain* Wind** Luminosity Snow
1788535187 38.33° C 32% 1017.6 hPa - - - -
1788533986 38.89° C 30% 1017.7 hPa - - - -
1788532786 38.89° C 32% 1017.8 hPa - - - -
1788531586 37.78° C 34% 1018.1 hPa - - - -
1788530385 38.33° C 33% 1018.2 hPa - - - -
1788529185 38.33° C 33% 1018.3 hPa - - - -
1788527985 39.44° C 32% 1018.4 hPa - - - -
1788526784 39.44° C 31% 1018.7 hPa - - - -
1788525584 38.89° C 33% 1018.9 hPa - - - -
1788524384 37.22° C 35% 1019.2 hPa - - - -
1788523183 34.44° C 39% 1019.6 hPa - - - -
1788521983 35° C 39% 1019.6 hPa - - - -
1788520783 35.56° C 37% 1019.8 hPa - - - -
1788519583 35° C 39% 1020 hPa - - - -
1788518382 33.89° C 40% 1020.2 hPa - - - -
1788517182 34.44° C 41% 1020.3 hPa - - - -
1788515982 31.67° C 44% 1020.7 hPa - - - -
1788514781 33.89° C 41% 1020.7 hPa - - - -
1788513581 33.33° C 41% 1020.9 hPa - - - -
1788512381 32.78° C 44% 1020.9 hPa - - - -
1788511180 30° C 49% 1021 hPa - - - -
1788509980 28.89° C 54% 1021.1 hPa - - - -
1788508780 28.33° C 54% 1021 hPa - - - -
1788507579 31.11° C 44% 1020.7 hPa - - - -
1788506379 31.67° C 44% 1020.5 hPa - - - -

* Rain since midnight (hover to see other rain measurements)
** Current wind speed in m/s (hover to see current wind gust speed)